Location: Chiroubles
(46.1812°N, 4.6660°E)
Time: 18:13:50
(UTC+00:00)

Vanguard 3 - All Passes

Search period start: 04 December 2020 00:00
Search period end: 14 December 2020 00:00
Orbit: 508 x 3262 km, 33.3° (Epoch: 03 December)

Date Brightness Start Highest point End Pass type
(mag) Time Alt. Az. Time Alt. Az. Time Alt. Az.
04 Dec - 19:18:30 10° SSW 19:20:01 12° S 19:21:26 10° SSE visible
04 Dec - 21:29:15 10° SSW 21:30:37 12° S 21:32:02 10° SSE night (unlit)
05 Dec - 18:05:24 10° S 18:06:30 11° S 18:07:32 10° SSE visible
05 Dec - 20:15:25 10° SSW 20:17:11 13° S 20:18:54 10° SSE night (unlit)
06 Dec - 19:01:30 10° SSW 19:03:46 14° S 19:05:47 10° SSE visible
07 Dec - 17:47:27 10° SSW 17:50:15 14° S 17:52:36 10° SE visible
07 Dec - 19:59:02 10° SW 20:00:56 13° S 20:02:43 10° SSE visible
08 Dec - 16:33:25 10° SSW 16:36:33 13° S 16:39:08 10° SE visible
08 Dec - 18:44:32 10° SW 18:47:31 16° S 18:50:02 10° SE visible
09 Dec - 15:19:55 10° S 15:22:36 12° SSE 15:24:55 10° SE daylight
09 Dec - 17:29:55 10° SW 17:33:59 18° S 17:37:08 10° SE visible
09 Dec - 19:42:31 10° SW 19:44:40 13° SSW 19:46:37 10° SSE visible
10 Dec - 16:15:13 10° SSW 16:20:14 18° S 16:23:58 10° SE daylight
10 Dec - 18:27:32 10° SW 18:31:16 18° S 18:34:13 10° SE visible
11 Dec - 15:00:41 10° SSW 15:06:11 16° SSE 15:10:22 10° SE daylight
11 Dec - 17:12:27 10° SW 17:17:42 22° S 17:21:29 10° SE visible
11 Dec - 19:25:53 10° SW 19:28:22 14° SSW 19:30:30 10° SSE visible
12 Dec - 13:46:57 10° S 13:51:51 14° SSE 13:55:50 10° SE daylight
12 Dec - 15:57:12 10° SW 16:03:53 23° S 16:08:28 10° ESE daylight
12 Dec - 18:10:27 10° WSW 18:14:59 20° SSW 18:18:22 10° SE visible
13 Dec - 14:42:03 10° SSW 14:49:43 21° SSE 14:55:04 10° ESE daylight
13 Dec - 16:54:56 10° SW 17:01:23 25° S 17:05:43 10° SE visible
13 Dec - 19:09:08 10° SW 19:12:01 14° SSW 19:14:25 10° SSE visible
